Temp
61 65 66 64 62 63 59 59 59 59 58 57 59 58 58 61 60 60 61 60 62 64
61 64 64 62 62 61 61 60 59 59 59 58 59 59 58 62 59 59 61 60 59 62
62 61 64 64 63 60 60 61 60 58 59 59 59 59 59 62 66 61 59 60 59 62
64 61 62 62 61 60 62 63 64 63 60 59 61 62 61 64 64 59 60 61 59 59
64 61 61 63 62 62 63 64 64 64 64 64 64 65 64 62 61 60 61 62 62 60
61 60 61 64 62 61 63 63 63 64 62 62 63 63 62 61 61 61 61 62 62 64
59 59 62 64 65 63 63 62 60 60 62 63 63 63 63 62 61 61 62 64 65 66
60 61 62 63 64 64 64 64 64 63 62 62 62 63 62 63 63 62 61 61 62 62
51 51 51 52 56 59 59 60 61 62 63 63 64 50 46 55 62 62 62 62 63 63
46 46 46 48 49 48 48 51 52 54 56 58 51 37 39 42 57 58 58 58 59 59
41 42 44 44 44 44 46 47 47 43 42 44 39 36 37 36 46 54 58 58 58 58
40 40 41 41 41 42 44 44 41 39 37 38 36 35 36 37 45 49 52 55 49 39
39 38 37 38 38 41 42 40 39 36 35 34 35 35 35 37 43 43 39 36 35 33
38 37 37 37 37 38 39 38 35 34 33 33 33 35 34 34 37 36 33 31 30 31
MSLP
1008.12 1008.39 1008.65 1009.18 1009.89 1010.43 1011.18 1011.57 1012.22 1012.71 1013.29 1013.83 1014.35 1015.28 1016.07 1016.81 1016.97 1017.15 1017.46 1017.72 1018.00 1018.26
1007.87 1008.07 1008.45 1009.07 1009.61 1010.21 1010.90 1011.44 1011.98 1012.49 1013.00 1013.68 1014.29 1014.98 1015.74 1016.14 1016.47 1016.48 1017.03 1017.38 1017.67 1017.87
1007.37 1007.99 1008.28 1008.73 1009.39 1010.00 1010.61 1011.22 1011.79 1012.25 1012.62 1013.26 1014.03 1014.71 1015.24 1015.48 1015.64 1016.04 1016.42 1016.87 1016.99 1017.13
1006.81 1007.64 1008.09 1008.59 1009.16 1009.82 1010.41 1010.91 1011.29 1011.79 1012.42 1012.90 1013.46 1014.09 1014.63 1014.91 1015.14 1015.61 1015.92 1016.34 1016.70 1016.79
1006.53 1007.40 1007.91 1008.30 1008.87 1009.40 1009.90 1010.41 1010.86 1011.36 1011.84 1012.32 1012.73 1013.16 1013.46 1013.86 1014.38 1014.86 1015.14 1015.37 1015.86 1016.08
1006.60 1007.20 1007.62 1007.96 1008.51 1009.07 1009.46 1009.96 1010.37 1010.79 1011.26 1011.71 1012.19 1012.62 1013.00 1013.33 1013.67 1013.94 1014.23 1014.54 1014.72 1014.88
1006.88 1007.23 1007.48 1007.75 1008.01 1008.52 1009.02 1009.40 1009.94 1010.32 1010.62 1010.95 1011.37 1011.71 1012.08 1012.47 1012.78 1013.08 1013.34 1013.53 1013.69 1013.91
1007.14 1007.33 1007.59 1007.81 1008.03 1008.33 1008.64 1009.02 1009.42 1009.83 1010.19 1010.50 1010.80 1011.09 1011.46 1011.78 1012.05 1012.28 1012.48 1012.66 1012.84 1012.91
1007.99 1008.17 1008.45 1008.67 1008.43 1008.56 1008.76 1008.89 1009.16 1009.55 1009.81 1010.07 1010.32 1010.69 1011.04 1011.21 1011.23 1011.34 1011.41 1011.45 1011.48 1011.52
1009.05 1009.45 1009.69 1009.84 1009.75 1009.69 1009.90 1009.91 1009.99 1010.03 1010.02 1009.94 1011.03 1011.87 1011.52 1011.05 1010.68 1010.59 1010.68 1010.73 1010.74 1010.69
1010.57 1010.79 1010.93 1011.08 1010.92 1010.95 1010.89 1010.83 1011.03 1011.59 1011.91 1011.87 1012.60 1012.58 1012.18 1011.58 1010.99 1010.49 1010.11 1010.07 1010.10 1009.92
1012.75 1012.19 1012.20 1012.15 1011.99 1011.85 1011.62 1011.76 1012.30 1012.86 1013.11 1013.11 1013.50 1013.28 1012.70 1011.91 1010.95 1010.50 1010.20 1010.14 1010.67 1011.16
1013.81 1012.88 1013.17 1013.13 1013.03 1012.82 1012.61 1013.00 1013.30 1013.91 1014.19 1014.45 1014.34 1014.04 1013.24 1012.29 1011.58 1011.32 1011.62 1012.10 1012.46 1012.37
1014.44 1014.10 1014.17 1014.21 1014.22 1014.06 1013.92 1013.85 1014.11 1014.38 1014.97 1015.22 1015.22 1014.96 1014.26 1013.42 1012.72 1012.78 1013.24 1013.53 1013.68 1013.74
Wind_Speed
11 10 9 11 8 8 5 6 11 11 12 13 14 14 14 10 10 10 8 11 10 7
10 12 10 10 9 7 7 7 9 11 12 14 14 15 16 11 11 7 9 10 9 8
12 10 10 10 10 9 7 8 12 8 10 12 13 13 12 13 13 10 8 8 8 9
12 10 9 10 9 9 10 12 12 14 12 12 15 16 14 15 13 11 11 9 9 11
12 10 9 11 11 12 12 12 13 12 13 14 15 16 17 15 12 14 15 14 13 14
9 9 10 11 11 12 11 12 12 12 13 13 14 13 13 13 13 13 14 14 14 17
7 7 10 9 9 10 11 11 11 11 12 14 14 14 14 14 13 13 13 15 16 17
7 8 8 8 8 7 8 9 10 11 11 11 11 11 15 15 15 15 15 14 15 16
10 11 10 8 5 1 3 5 7 9 11 11 9 11 13 14 13 15 17 16 17 18
12 12 10 9 9 9 8 7 9 7 5 8 9 20 14 10 13 13 13 14 14 14
13 11 10 10 10 10 8 8 9 10 11 9 12 19 17 16 7 12 14 14 15 16
11 12 11 11 11 9 9 10 11 10 12 11 12 21 19 15 6 6 10 10 9 12
11 13 12 12 11 9 9 10 9 11 12 16 12 22 22 16 5 6 6 9 12 21
14 14 12 11 10 10 10 10 11 11 11 12 14 15 24 24 11 8 8 8 9 11
Wind_Direction
180 185 184 172 165 172 167 156 166 170 170 170 171 175 183 208 208 193 194 192 207 210
179 184 180 166 162 164 153 156 164 175 170 173 179 184 187 209 202 185 200 205 200 203
173 173 175 164 166 158 156 178 174 164 174 169 180 191 196 218 218 206 208 212 204 215
171 170 184 176 171 169 176 192 191 185 176 178 184 190 196 210 214 205 212 211 210 212
167 159 181 187 184 185 191 193 195 193 194 194 199 201 201 204 205 210 216 220 217 222
160 168 193 188 183 180 187 192 198 197 198 200 205 204 206 207 209 213 219 221 225 230
167 184 203 203 189 179 185 188 191 195 203 208 211 214 213 213 217 219 224 226 228 228
192 198 207 212 217 209 194 202 206 206 208 211 216 217 219 221 225 226 227 228 230 233
56 56 45 39 13 203 216 220 206 226 231 230 230 213 209 222 225 228 232 232 230 230
48 46 37 33 41 42 32 27 32 17 316 258 45 16 2 260 229 226 228 233 238 241
42 42 38 38 39 33 30 37 45 43 31 66 36 12 2 342 264 251 247 240 241 245
34 42 39 39 33 31 40 48 56 49 45 43 33 11 3 347 321 276 266 274 22 20
36 44 40 35 29 30 54 61 65 59 49 43 37 20 15 2 353 11 54 47 42 24
35 42 42 43 38 38 52 64 63 63 52 43 34 32 32 29 38 54 58 50 44 38